CW8164 Weather Reports


Display with metric or nautical units.
time (UTC)temp
F
wind
direction
speed
MPH
gust
MPH
rain 1hr
in
rain 24hr
in
rain mn
in
humidity
%
barometer
mb
20260906092904 54 111 0.0 0.0 0.00 0.00 0.00 92 1015.1
20260906092404 54 111 0.0 0.0 0.00 0.00 0.00 92 1015.1
20260906091904 54 111 0.0 0.0 0.00 0.00 0.00 92 1015.1
20260906091404 54 111 0.0 0.0 0.00 0.00 0.00 92 1015.2
20260906090904 54 111 0.0 0.0 0.00 0.00 0.00 92 1015.2
20260906090403 54 111 0.0 0.0 0.00 0.00 0.00 92 1015.2
20260906085904 54 111 0.0 0.0 0.00 0.00 0.00 92 1015.1
20260906085403 54 111 0.0 0.0 0.00 0.00 0.00 92 1015.1
20260906084904 54 111 0.0 0.0 0.00 0.00 0.00 92 1015.1
20260906083904 54 111 0.0 0.0 0.00 0.00 0.00 92 1015.0
20260906083403 54 111 0.0 0.0 0.00 0.00 0.00 92 1015.0
20260906082403 54 111 0.0 0.0 0.00 0.00 0.00 92 1014.9
20260906081903 54 111 0.0 0.0 0.00 0.00 0.00 92 1014.9
20260906081404 54 111 0.0 0.0 0.00 0.00 0.00 92 1014.9
20260906080403 55 111 0.0 0.0 0.00 0.00 0.00 92 1015.0
20260906075903 55 111 0.0 0.0 0.00 0.00 0.00 92 1015.0
20260906075404 55 111 0.0 0.0 0.00 0.00 0.00 91 1015.0
20260906074903 55 111 0.0 0.0 0.00 0.00 0.00 91 1015.0
20260906074403 55 111 0.0 0.0 0.00 0.00 0.00 91 1015.0
20260906073903 55 111 0.0 0.0 0.00 0.00 0.00 91 1015.0
20260906072904 55 111 0.0 0.0 0.00 0.00 0.00 91 1015.0
20260906071404 55 111 0.0 0.0 0.00 0.00 0.00 91 1015.0
20260906070903 55 111 0.0 0.0 0.00 0.00 0.00 92 1015.0
20260906070403 55 111 0.0 0.0 0.00 0.00 0.00 92 1015.0
20260906065903 55 111 0.0 0.0 0.00 0.00 0.00 92 1015.0
20260906065403 55 111 0.0 0.0 0.00 0.00 0.00 92 1015.0
20260906064903 54 111 0.0 0.0 0.00 0.00 0.00 92 1015.1
20260906064403 54 111 0.0 0.0 0.00 0.00 0.00 92 1015.1
20260906063904 54 111 0.0 0.0 0.00 0.00 0.00 92 1015.1
20260906063404 54 111 0.0 0.0 0.00 0.00 0.00 92 1015.1
20260906062903 54 111 0.0 0.0 0.00 0.00 0.00 92 1015.2
20260906062404 54 111 0.0 0.0 0.00 0.00 0.00 92 1015.2
20260906061903 54 111 0.0 0.0 0.00 0.00 0.00 92 1015.1
20260906061403 54 111 0.0 0.0 0.00 0.00 0.00 92 1015.0
20260906060404 54 117 0.0 0.0 0.00 0.00 0.00 91 1015.0
20260906055904 54 117 0.0 0.0 0.00 0.00 0.00 92 1015.0
20260906055403 54 117 0.0 0.0 0.00 0.00 0.00 92 1015.0
20260906053903 54 117 0.0 0.0 0.00 0.00 0.00 91 1015.1
20260906053403 54 117 0.0 0.0 0.00 0.00 0.00 91 1015.2
20260906052403 54 117 0.0 0.0 0.00 0.00 0.00 90 1015.2
20260906050904 55 117 0.0 0.0 0.00 0.00 0.00 89 1015.4
20260906045903 55 117 0.0 0.0 0.00 0.00 0.00 89 1015.4
20260906045403 55 117 0.0 0.0 0.00 0.00 0.00 90 1015.4
20260906044404 55 94 0.0 0.0 0.00 0.00 0.00 89 1015.4
20260906043903 55 94 0.0 0.0 0.00 0.00 0.00 89 1015.5
20260906043403 55 94 0.0 0.0 0.00 0.00 0.00 89 1015.5
20260906042903 55 94 0.0 0.0 0.00 0.00 0.00 88 1015.5
20260906042403 55 94 0.0 0.0 0.00 0.00 0.00 88 1015.5
20260906041903 56 94 0.0 0.0 0.00 0.00 0.00 87 1015.5
20260906040904 56 94 0.0 0.0 0.00 0.00 0.00 86 1015.5
20260906040404 56 94 0.0 0.0 0.00 0.00 0.00 87 1015.4
20260906035904 57 94 0.0 0.0 0.00 0.00 0.00 86 1015.3
20260906035403 57 94 0.0 0.0 0.00 0.00 0.00 86 1015.3
20260906034404 57 110 0.0 0.0 0.00 0.00 0.00 85 1015.4
20260906033403 58 110 0.0 0.0 0.00 0.00 0.00 84 1015.1
20260906032903 58 110 0.0 0.0 0.00 0.00 0.00 83 1015.0
20260906032403 58 110 0.0 0.0 0.00 0.00 0.00 83 1015.0
20260906031903 59 110 0.0 0.0 0.00 0.00 0.00 83 1014.9
20260906031404 59 113 0.0 0.0 0.00 0.00 0.00 82 1014.8
20260906030903 60 117 0.0 0.0 0.00 0.00 0.00 82 1014.9
20260906030403 60 116 0.0 0.0 0.00 0.00 0.00 80 1014.8
20260906025903 60 121 0.0 0.0 0.00 0.00 0.00 80 1014.9
20260906025404 60 4 0.0 0.0 0.00 0.00 0.00 79 1014.9
20260906024904 61 346 0.0 0.0 0.00 0.00 0.00 79 1014.9
20260906023904 62 204 0.0 0.0 0.00 0.00 0.00 77 1014.8
20260906023404 62 204 0.0 0.0 0.00 0.00 0.00 77 1014.8
20260906022904 63 204 0.0 0.0 0.00 0.00 0.00 76 1014.9
20260906022403 63 204 0.0 0.0 0.00 0.00 0.00 73 1015.0
20260906021904 63 204 0.0 0.0 0.00 0.00 0.00 73 1015.0
20260906021404 64 204 0.0 0.0 0.00 0.00 0.00 73 1015.0
20260906020904 64 204 0.0 0.0 0.00 0.00 0.00 72 1015.0
20260906020404 64 204 0.0 0.0 0.00 0.00 0.00 71 1015.0
20260906015904 64 184 0.0 0.0 0.00 0.00 0.00 71 1015.0
20260906015404 64 141 0.0 0.0 0.00 0.00 0.00 72 1015.0
20260906014403 64 221 0.0 0.0 0.00 0.00 0.00 72 1015.0
20260906013903 64 248 0.0 0.0 0.00 0.00 0.00 71 1015.0
20260906013403 64 221 0.0 0.0 0.00 0.00 0.00 74 1015.0
20260906012903 65 221 0.0 0.0 0.00 0.00 0.00 72 1015.0
20260906012404 65 221 0.0 0.0 0.00 0.00 0.00 71 1015.0
20260906011904 65 223 0.0 0.0 0.00 0.00 0.00 71 1015.0
20260906011404 66 229 0.0 0.0 0.00 0.00 0.00 69 1015.1
20260906010903 66 229 0.0 0.0 0.00 0.00 0.00 67 1015.1
20260906005903 68 239 0.0 0.0 0.00 0.00 0.00 64 1015.1
20260906005404 69 245 0.0 0.0 0.00 0.00 0.00 62 1015.1
20260906004904 69 246 0.0 0.0 0.00 0.00 0.00 58 1015.0
20260906004404 70 256 0.0 0.0 0.00 0.00 0.00 58 1015.0
20260906003403 71 254 0.0 2.0 0.00 0.00 0.00 54 1015.1
20260906002903 71 205 0.0 2.0 0.00 0.00 0.00 51 1015.1
20260906002403 72 37 0.0 0.0 0.00 0.00 0.00 52 1015.1
20260906001903 71 299 0.0 0.0 0.00 0.00 0.00 54 1015.2
20260906001404 71 300 0.0 0.0 0.00 0.00 0.00 55 1015.1
20260906000404 71 27 0.0 0.0 0.00 0.00 0.00 53 1015.2
20260905235904 71 20 0.0 0.0 0.00 0.00 0.00 54 1015.1
20260905234903 71 272 0.0 1.0 0.00 0.00 0.00 53 1015.1
20260905234404 71 345 0.0 1.0 0.00 0.00 0.00 53 1015.2
20260905233903 71 271 0.0 3.0 0.00 0.00 0.00 53 1015.2
20260905233403 71 277 0.0 3.0 0.00 0.00 0.00 51 1015.2
20260905232403 71 144 0.0 2.0 0.00 0.00 0.00 53 1015.3
20260905231903 71 315 0.0 5.0 0.00 0.00 0.00 52 1015.3
20260905231403 71 243 1.0 5.0 0.00 0.00 0.00 52 1015.3
20260905230903 71 252 1.0 3.0 0.00 0.00 0.00 51 1015.4
20260905230403 70 114 0.0 0.0 0.00 0.00 0.00 52 1015.4
20260905225404 70 202 0.0 3.0 0.00 0.00 0.00 53 1015.4
20260905224904 70 172 1.0 3.0 0.00 0.00 0.00 52 1015.4
20260905223903 71 60 1.0 6.0 0.00 0.01 0.00 53 1015.4
20260905222904 71 32 0.0 6.0 0.00 0.01 0.00 52 1015.5
20260905222404 71 108 0.0 7.0 0.00 0.01 0.00 52 1015.5
20260905221903 72 284 2.0 7.0 0.00 0.01 0.00 49 1015.5
20260905221403 72 36 4.0 7.0 0.00 0.01 0.00 50 1015.6
20260905220904 72 24 2.0 6.0 0.00 0.01 0.00 52 1015.6
20260905220403 72 229 1.0 6.0 0.00 0.01 0.00 51 1015.6
20260905215904 71 274 1.0 6.0 0.00 0.01 0.00 52 1015.6
20260905215404 71 21 2.0 5.0 0.00 0.01 0.00 53 1015.6
20260905214904 71 11 1.0 8.0 0.00 0.01 0.00 53 1015.7
20260905214403 71 41 2.0 8.0 0.00 0.01 0.00 53 1015.7
20260905213903 71 15 3.0 7.0 0.00 0.01 0.00 54 1015.7
20260905213404 70 325 0.0 6.0 0.00 0.01 0.00 57 1015.7
20260905211903 70 29 2.0 5.0 0.00 0.01 0.00 59 1015.8
20260905210903 69 223 0.0 3.0 0.00 0.01 0.00 58 1015.8
20260905205903 70 321 3.0 7.0 0.00 0.01 0.00 59 1016.0
20260905205404 70 22 5.0 7.0 0.00 0.01 0.00 56 1015.9
20260905204903 71 59 2.0 3.0 0.00 0.01 0.00 57 1016.0
20260905204403 70 1 0.0 9.0 0.00 0.01 0.00 56 1016.0
20260905203903 71 202 0.0 9.0 0.00 0.01 0.00 56 1015.9
20260905203404 72 187 3.0 9.0 0.00 0.01 0.00 55 1016.0
20260905202904 72 164 3.0 6.0 0.00 0.01 0.00 55 1016.0
20260905202404 71 229 2.0 7.0 0.00 0.01 0.00 55 1016.0
20260905201903 71 252 2.0 9.0 0.00 0.01 0.00 60 1015.9
20260905201404 71 22 5.0 9.0 0.00 0.01 0.00 58 1016.0
20260905200403 70 214 2.0 7.0 0.00 0.01 0.00 61 1016.0
20260905195903 70 277 3.0 7.0 0.00 0.01 0.00 60 1016.0
20260905195403 70 108 2.0 5.0 0.00 0.01 0.00 59 1016.1
20260905194904 70 259 1.0 5.0 0.00 0.01 0.00 60 1016.2
20260905194403 70 332 1.0 5.0 0.00 0.01 0.00 61 1016.3
20260905193904 70 276 1.0 6.0 0.00 0.01 0.00 63 1016.3
20260905193403 69 313 2.0 6.0 0.00 0.01 0.00 63 1016.3
20260905192404 69 301 1.0 6.0 0.00 0.01 0.00 62 1016.5
20260905191904 69 274 1.0 6.0 0.00 0.01 0.00 63 1016.5
20260905191403 68 27 0.0 6.0 0.00 0.01 0.00 65 1016.6
20260905190903 68 61 2.0 6.0 0.00 0.01 0.00 63 1016.6
20260905190404 68 334 1.0 5.0 0.00 0.01 0.00 64 1016.7
20260905185903 68 301 1.0 3.0 0.00 0.01 0.00 65 1016.7
20260905185404 68 76 0.0 3.0 0.00 0.01 0.00 65 1016.8
20260905184903 68 279 1.0 3.0 0.00 0.01 0.00 66 1016.8
20260905184404 67 357 1.0 5.0 0.00 0.01 0.00 69 1016.9
20260905183904 67 57 0.0 5.0 0.00 0.01 0.00 66 1016.9
20260905183403 67 24 2.0 5.0 0.00 0.01 0.00 68 1017.0
20260905182903 66 26 1.0 5.0 0.00 0.01 0.00 70 1017.1
20260905182404 66 236 0.0 5.0 0.00 0.01 0.00 69 1017.1
20260905181903 65 28 1.0 5.0 0.00 0.01 0.00 72 1017.1
20260905181403 65 115 0.0 3.0 0.00 0.01 0.00 73 1017.1
20260905180404 64 276 1.0 3.0 0.00 0.01 0.00 74 1017.2
20260905175404 64 146 0.0 2.0 0.00 0.01 0.00 75 1017.2
20260905174903 64 196 0.0 2.0 0.00 0.01 0.00 73 1017.2
20260905174404 64 244 0.0 3.0 0.00 0.01 0.00 72 1017.2
20260905173404 64 286 2.0 6.0 0.00 0.01 0.00 77 1017.2
20260905172903 63 126 0.0 3.0 0.00 0.01 0.00 78 1017.3
20260905172404 62 294 1.0 3.0 0.00 0.01 0.00 80 1017.3
20260905171904 62 274 1.0 3.0 0.00 0.01 0.00 82 1017.3
20260905171404 61 158 1.0 3.0 0.00 0.01 0.00 80 1017.3
20260905170904 60 202 1.0 3.0 0.00 0.01 0.00 85 1017.3
20260905170403 59 102 1.0 5.0 0.00 0.01 0.00 84 1017.3
20260905165904 59 294 1.0 5.0 0.00 0.01 0.00 86 1017.4
20260905165403 59 24 2.0 5.0 0.00 0.01 0.00 86 1017.3
20260905164904 58 140 0.0 0.0 0.00 0.01 0.00 86 1017.4
20260905164403 58 74 0.0 0.0 0.00 0.01 0.00 88 1017.4
20260905163905 57 62 0.0 0.0 0.00 0.01 0.00 89 1017.4
20260905163404 57 71 0.0 0.0 0.00 0.01 0.00 89 1017.5
20260905162904 57 267 0.0 0.0 0.00 0.01 0.00 89 1017.5
20260905162403 57 257 0.0 0.0 0.00 0.01 0.00 89 1017.4
20260905161903 56 257 0.0 0.0 0.00 0.01 0.00 90 1017.4
20260905161404 56 257 0.0 0.0 0.00 0.01 0.00 89 1017.5
20260905160904 56 253 0.0 0.0 0.00 0.01 0.00 90 1017.5
20260905160404 56 247 0.0 0.0 0.00 0.01 0.00 90 1017.5
20260905155904 56 307 0.0 0.0 0.00 0.01 0.00 91 1017.6
20260905155404 56 307 0.0 0.0 0.00 0.01 0.00 92 1017.6
20260905154903 55 311 0.0 0.0 0.00 0.01 0.00 93 1017.6
20260905154403 55 313 0.0 0.0 0.00 0.01 0.00 94 1017.5
20260905153904 55 313 0.0 0.0 0.00 0.01 0.00 95 1017.6
20260905153405 54 313 0.0 0.0 0.00 0.01 0.00 95 1017.6
20260905152903 54 21 0.0 0.0 0.00 0.01 0.00 96 1017.6
20260905152403 54 47 0.0 0.0 0.00 0.01 0.00 96 1017.7
20260905151903 53 47 0.0 0.0 0.00 0.01 0.00 96 1017.6
20260905150904 53 44 0.0 0.0 0.00 0.01 0.00 96 1017.5
20260905150403 53 44 0.0 0.0 0.00 0.01 0.00 95 1017.4
20260905145904 52 44 0.0 0.0 0.00 0.01 0.00 95 1017.5
20260905145404 52 44 0.0 0.0 0.00 0.01 0.00 95 1017.4
20260905144903 52 37 0.0 0.0 0.00 0.01 0.00 95 1017.4
20260905144404 52 36 0.0 0.0 0.00 0.01 0.00 96 1017.5
20260905143904 52 156 0.0 0.0 0.00 0.01 0.00 95 1017.5
20260905143403 51 161 0.0 0.0 0.00 0.01 0.00 95 1017.5
20260905142904 51 161 0.0 0.0 0.00 0.01 0.00 95 1017.5
20260905142404 51 161 0.0 0.0 0.00 0.01 0.00 95 1017.5
20260905141904 51 161 0.0 0.0 0.00 0.01 0.00 95 1017.4
20260905141403 51 161 0.0 0.0 0.00 0.01 0.00 95 1017.4
20260905140904 51 161 0.0 0.0 0.00 0.01 0.00 95 1017.4
20260905140404 51 161 0.0 0.0 0.00 0.01 0.00 95 1017.4
20260905135903 50 161 0.0 0.0 0.00 0.01 0.00 95 1017.3
20260905134904 50 161 0.0 0.0 0.00 0.02 0.00 94 1017.2
20260905134404 50 161 0.0 0.0 0.00 0.02 0.00 94 1017.3
20260905133904 50 161 0.0 0.0 0.00 0.02 0.00 94 1017.3
20260905133404 51 161 0.0 0.0 0.00 0.02 0.00 94 1017.2
20260905132403 51 162 0.0 0.0 0.00 0.02 0.00 94 1017.1
20260905131903 51 162 0.0 0.0 0.00 0.02 0.00 94 1017.2
20260905130403 51 162 0.0 0.0 0.00 0.02 0.00 94 1017.1
20260905125903 51 162 0.0 0.0 0.00 0.02 0.00 94 1017.0
20260905123904 52 162 0.0 0.0 0.00 0.04 0.00 94 1016.9
20260905122904 52 162 0.0 0.0 0.00 0.04 0.00 94 1016.9
20260905122403 52 162 0.0 0.0 0.00 0.05 0.00 95 1017.0
20260905121404 52 162 0.0 0.0 0.00 0.05 0.00 95 1016.9
20260905120904 52 162 0.0 0.0 0.00 0.05 0.00 95 1016.9
20260905115903 52 162 0.0 0.0 0.00 0.05 0.00 95 1016.9
20260905114904 52 78 0.0 0.0 0.00 0.05 0.00 95 1016.8
20260905114403 52 39 0.0 0.0 0.00 0.05 0.00 95 1016.8
20260905113904 52 39 0.0 0.0 0.00 0.05 0.00 95 1016.7
20260905113404 52 59 0.0 0.0 0.00 0.05 0.00 95 1016.7
20260905112904 52 75 0.0 0.0 0.00 0.05 0.00 95 1016.7
20260905112403 52 75 0.0 0.0 0.00 0.05 0.00 95 1016.8
20260905111904 52 75 0.0 0.0 0.00 0.05 0.00 95 1016.8
20260905111404 51 75 0.0 0.0 0.00 0.05 0.00 95 1016.8
20260905110903 51 75 0.0 0.0 0.00 0.05 0.00 95 1016.8
20260905110404 51 75 0.0 0.0 0.00 0.05 0.00 95 1016.8
20260905105903 51 75 0.0 0.0 0.00 0.05 0.00 95 1016.9
20260905105404 51 76 0.0 0.0 0.00 0.05 0.00 95 1016.9
20260905104903 51 82 0.0 0.0 0.00 0.05 0.00 95 1016.9
20260905104403 51 134 0.0 0.0 0.00 0.05 0.00 95 1016.9
20260905103903 51 165 0.0 0.0 0.00 0.05 0.00 95 1016.9
20260905103404 51 165 0.0 0.0 0.00 0.05 0.00 95 1016.8
20260905102404 51 165 0.0 0.0 0.00 0.05 0.00 95 1016.7
20260905101404 51 83 0.0 0.0 0.00 0.05 0.00 94 1016.7
20260905100904 51 83 0.0 0.0 0.00 0.05 0.00 95 1016.7
20260905100404 51 83 0.0 0.0 0.00 0.05 0.00 95 1016.7
20260905095905 51 83 0.0 0.0 0.00 0.05 0.00 95 1016.8
20260905095403 51 83 0.0 0.0 0.00 0.05 0.00 95 1016.8
20260905094904 51 80 0.0 0.0 0.00 0.05 0.00 94 1016.7
20260905093403 51 80 0.0 0.0 0.00 0.05 0.00 94 1016.8